Location: ??????
(41.3164°N, 22.6615°E)
Time: 20:12:12
(UTC+00:00)

H-2A R/B - Pass Details

Date: 16 October 2021
Orbit: 577 x 654 km, 98.5° (Epoch: 29 November)

Event Time Altitude Azimuth Distance (km) Brightness Sun altitude
Rises 16:38:15 0° 26° (NNE) 2,801 5.1 -10.4°
Reaches altitude 10° 16:40:43 10° 40° (NE) 1,900 4.2 -10.9°
Maximum altitude 16:44:08 25° 96° (E) 1,190 2.9 -11.5°
Drops below altitude 10° 16:47:33 10° 153° (SSE) 1,905 4.3 -12.1°
Sets 16:50:01 0° 166° (SSE) 2,811 5.3 -12.6°
